Regional Weather Roundup
Issued by NWS Grand Forks, ND

Home | Current Version | Previous Version | Text Only | Print | Product List | Glossary Off
Versions: 1 2 3 4 5 6 7 8 9 10 11 12 13 14 15 16 17 18 19 20 21 22 23 24 25 26 27 28 29 30 31 32 33 34 35 36 37 38 39 40 41 42 43 44 45 46 47 48 49 50

000
ASUS43 KFGF 261910
RWRFGF
PRAIRIE TO PINES  WEATHER ROUNDUP
NATIONAL WEATHER SERVICE EASTERN NORTH DAKOTA/GRAND FORKS ND
100 PM CST WED NOV 26 2014

 **SATELLITE DATA USED TO AUGMENT SKY COVER AT AUTOMATED STATIONS**
 *****  WEATHER ACROSS EASTERN NORTH DAKOTA  *****

CITY           SKY/WX    TMP DP  RH WIND       PRES   REMARKS
GRAND FORKS    MOSUNNY    3  -6  66 N13       30.45S WCI -14
GRAND FRKS AFB SUNNY      2  -6  66 N13       30.45S WCI -15
GRAND FRKS NWS   N/A      3 N/A N/A N13         N/A  WCI -14
DEVILS LAKE    SUNNY      1 -15  46 N12       30.39R WCI -15
FARGO          CLOUDY     6  -4  63 N14       30.40R WCI -11
WAHPETON ARPT  PTCLDY     9   0  66 N18G25    30.36S WCI -10
$$

 ***** WEATHER ACROSS CENTRAL AND WESTERN NORTH DAKOTA  *****

CITY           SKY/WX    TMP DP  RH WIND       PRES   REMARKS
BISMARCK       CLOUDY    11   3  70 NE5       30.39R WCI   3
MINOT          MOSUNNY    4  -4  69 N8        30.40S WCI  -9
JAMESTOWN      CLOUDY     4  -5  66 N10       30.38R WCI -11
MINOT AFB      PTSUNNY    3  -3  77 NW6       30.41R WCI  -8
GARRISON         N/A      8   2  76 NE6       30.37R WCI  -2
WILLISTON      CLOUDY    12   4  70 N10       30.37F WCI  -1
DICKINSON      CLOUDY    20  13  74 N5        30.26S WCI  13
HETTINGER      LGT SNOW  22  17  81 NE13      30.26S WCI  10
$$

 *****  OTHER AIRPORT OBSERVATIONS IN OUR AREA  *****

CITY           SKY/WX    TMP DP  RH WIND       PRES   REMARKS
WALHALLA         N/A      0  -8  71 N12       30.47S WCI -18
GRAFTON AIRPOR FAIR       0  -8  71 N16       30.47R HAZE    WCI -21
VALLEY CITY AR MOCLDY     3  -4  72 N14       30.38S WCI -15
CANDO          FAIR       1  -6  71 N9        30.42S WCI -14
CAVALIER APRT  FAIR       0  -8  71 N10       30.47S WCI -17
GWINNER        MOCLDY     9  -4  56 N12       30.39R WCI  -6
SHEYENNE NWR     N/A      5  -6  59 N10       29.95S WCI -10
ROLLA          FAIR       0  -8  71 N8        30.39S WCI -15
 ***** THE ABOVE OBSERVATIONS ARE NON NWS ARE NOT QUALITY
       CONTROLLED AND MAY MIS-REPORT RAIN FOR SNOW...
$$

  *****  WEATHER ACROSS NORTHERN MINNESOTA  *****

CITY           SKY/WX    TMP DP  RH WIND       PRES   REMARKS
FLAG ISLAND    SUNNY     -2  -9  71 NW12      30.37S WCI -20
WARROAD        SUNNY      1  -8  66 NW7       30.37S WCI -11
ROSEAU         SUNNY      1  -9  60 NW8       30.39S WCI -12
HALLOCK        SUNNY      0  -9  65 N13       30.45S WCI -18
THF RVR FALLS  SUNNY      1  -8  66 NW14      30.38R WCI -17
BAUDETTE       SUNNY     -1  -9  68 NW15      30.34S WCI -21
WASKISH        SUNNY      7   0  72 NW5       30.32R WCI  -2
CROOKSTON      SUNNY      1  -6  71 N15       30.44R WCI -18
STEPHEN NDAWN    N/A      0  -8  71 N13         N/A  WCI -18
GREENBUSH NDAW   N/A      0  -8  71 N12         N/A  WCI -18
$$
  *****  WEATHER ACROSS CENTRAL AND WEST MINNESOTA  *****

CITY           SKY/WX    TMP DP  RH WIND       PRES   REMARKS
FOSSTON        SUNNY      5  -6  61 NW10      30.35R WCI -10
BEMIDJI        SUNNY      7  -8  49 N8        30.28S WCI  -6
PARK RAPIDS    SUNNY     13   2  61 N10       30.25R WCI   0
ELBOW LAKE     NOT AVBL
WADENA         MOSUNNY   18   7  62 N9        30.24S WCI   6
DETROIT LAKES  SUNNY      9   1  72 N14G20    30.31R WCI  -8
MOORHEAD       MOSUNNY    5   0  78 N17       30.40R WCI -14
FERGUS FALLS   MOSUNNY   10   1  67 N12G26    30.34R WCI  -4
MORRIS MN      CLOUDY    12   7  79 NW21G28   30.27R WCI  -6
STAPLES        SUNNY     18   9  68 N9        30.24R WCI   6
$$
  *****  WEATHER ELSEWHERE ACROSS MINNESOTA  *****

CITY           SKY/WX    TMP DP  RH WIND       PRES   REMARKS
DULUTH         FLURRIES  18   9  68 N10       30.17R WCI   6
INTRNTL FALLS  SUNNY      7  -4  60 N10       30.30R WCI  -8
ELY            LGT SNOW  14   7  73 NW6       30.19R WCI   5
CLOQUET        CLOUDY    18  10  73 NW10      30.19R WCI   6
WHEATON        SUNNY      9   1  72 NW16G25   30.36R WCI  -9
BRAINERD       SUNNY     18   9  68 N14       30.22S WCI   4
HIBBING        FLURRIES  16   6  65 N15       30.21S WCI   1
ALEXANDRIA     PTSUNNY   19  10  68 N13       30.23S WCI   6
SAINT CLOUD    CLOUDY    24  16  71 N10       30.21R WCI  14
MINNEAPOLIS    LGT SNOW  26  21  81 N10       30.19R WCI  16
$$

  *****  WEATHER ACROSS SOUTH DAKOTA  *****

CITY           SKY/WX    TMP DP  RH WIND       PRES   REMARKS
SIOUX FALLS    MOSUNNY   21  15  78 N17       30.23R WCI   7
BROOKINGS      NOT AVBL
WATERTOWN      PTSUNNY   11   5  77 N17       30.26R WCI  -6
HURON          SUNNY     12   4  70 N13       30.36R WCI  -3
SISSETON         N/A     10   3  73 N21       30.34R WCI  -9
ABERDEEN       PTSUNNY    9  -2  61 N17       30.38R WCI  -9
MITCHELL       PTSUNNY   15   9  76 NW17      30.34R WCI  -1
PIERRE         PTSUNNY   21  13  71 CALM      30.32F
MOBRIDGE       LGT SNOW  14   7  73 N5        30.32F WCI   6
RAPID CITY     CLOUDY    29  23  78 S7        30.23F WCI  22
$$

  *****  SOME WEATHER IN NEARBY STATES *****

CITY           SKY/WX    TMP DP  RH WIND       PRES   REMARKS
GLASGOW MT     CLOUDY    24  18  77 SE10      30.28F WCI  14
GREAT FALLS MT SNOW      30  29  96 E9        30.12F VSB 1/2 WCI  22
CHEYENNE WY    MIX PCPN  28  22  78 S13       30.11F WCI  17
SCOTTSBLUFF NE CLOUDY    31  26  82 W5        30.22F
OMAHA NE       CLOUDY    30  24  78 N31G41    30.12R WCI  15
DES MOINES IA  FLURRIES  32  27  81 NE9       29.99R WCI  24
DAVENPORT IA   CLOUDY    27  22  81 E13       30.06S WCI  16
CHICAGO IL     CLOUDY    28  21  75 E8        30.10F WCI  20
EAU CLAIRE WI  LGT SNOW  25  19  78 N6        30.16R WCI  18
LA CROSSE WI   CLOUDY    28  19  69 NW3       30.15R
$$

  *****  SOME NATIONAL WEATHER *****

CITY           SKY/WX    TMP DP  RH WIND       PRES   REMARKS
LA GUARDIA NY  LGTSLEET  35  33  92 NE13      29.93F FOG
RALEIGH NC     LGT RAIN  43  40  89 VRB7      29.95R FOG
ATLANTA GA     MOSUNNY   56  19  23 NW14G21   30.07F
NEW ORLEANS LA MOSUNNY   67  31  26 SW9       30.20F
OKLAHOMA CITY  PTSUNNY   56  30  37 NW21G31   30.19S
ALBUQUERQUE NM MOSUNNY   53  17  24 CALM      30.37F
SALT LAKE CITY MOSUNNY   56  30  37 S7        30.38F
LOS ANGELES CA SUNNY     78  21  12 N3        30.21F
BOISE ID       PTSUNNY   55  40  56 SE3       30.31F
SEATTLE WA     CLOUDY    57  52  83 S8        30.11F
$$

*** WEATHER ACROSS MANITOBA...SASKATCHEWAN AND ONTARIO ***
                ***ONTARIO***

CITY           SKY/WX    TMP DP  RH WIND       PRES   REMARKS
GERALDTON      FLURRIES   0  -8  71 N6        30.23S WCI -12
THUNDER BAY    CLOUDY    14   5  67 N7        30.24R WCI   4
SIOUX LOOKOUT  MOSUNNY   -2 -13  60 VRB6      30.30S WCI -14
TORONTO        CLOUDY    34  25  69 E7        30.14F
BIG TROUT LK   SUNNY    -15 -22  70 W9        30.31R WCI -33
PICKLE LAKE    CRYSTALS  -9 -17  70 W5        30.28S WCI -21
DRYDEN         SUNNY      0  -9  65 N7        30.30R WCI -13
KENORA         MOSUNNY   -2 -11  65 NW6       30.34R WCI -14
$$
                *** MANITOBA***

CITY           SKY/WX    TMP DP  RH WIND       PRES   REMARKS
BRANDON        MOSUNNY    0  -9  65 NW6       30.45S WCI -12
DAUPHIN        SUNNY     -6 -13  71 W5        30.51S WCI -17
ISLAND LAKE    MOSUNNY  -13 -22  64 W8        30.38S WCI -30
PILOT MOUND      N/A     -2  -9  71 N7          N/A  WCI -16
THE PAS        MOSUNNY   -8 -15  71 NW6       30.47S WCI -21
THOMPSON       MOSUNNY  -11 -20  64 W6        30.40S WCI -25
WINNIPEG       CRYSTALS  -4 -13  65 NW8       30.50S WCI -19
LYNN LAKE      SUNNY     -8 -15  71 W6        30.34S WCI -21
CHURCHILL      PTCLDY    -8 -15  71 W13       30.26S WCI -28
GILLAM         SUNNY    -13 -20  70 W10       30.35S WCI -32
$$
                ***SASKATCHEWAN***

CITY           SKY/WX    TMP DP  RH WIND       PRES   REMARKS
ESTEVAN        MOSUNNY    3  -4  72 E2        30.40S
KINDERSLEY     PTSUNNY   14   9  79 S9        30.26F WCI   2
LLOYDMINSTER   CLOUDY     5   0  78 S8        30.24F WCI  -8
PRINCE ALBERT  CRYSTALS  -9 -13  84 CALM      30.44S
REGINA         MOSUNNY    0  -6  78 S3        30.40F
YORKTON        SUNNY     -6  -9  84 W3        30.43S
N. BATTLEFORD  CLOUDY     5   0  78 SE12      30.35F WCI -11
LA RONGE       SUNNY     -8 -11  84 SW5       30.42F WCI -19
SASKATOON      PTSUNNY    5  -2  72 S9        30.39F WCI  -9
SWIFT CURRENT  MOSUNNY   14  10  85 SE10      30.24S WCI   1
$$
NOTE: THESE ARE AUTOMATED STATIONS WITH LIMITED QUALITY CONTROL
      "FAIR" INDICATES FEW OR NO CLOUDS BELOW 12,000 FEET WITH NO
      SIGNIFICANT WEATHER AND/OR OBSTRUCTIONS TO VISIBILITY.
      SKY/WX - SKY CONDITION AND SIGNIFICANT WEATHER.
      TMP - AIR TEMPERATURE.    DP   - DEWPOINT TEMPERATURE.
      RH  - RELATIVE HUMIDITY.  PRES - PRESSURE.
      HX  - HEAT INDEX.         WCI  - WIND CHILL INDEX.
$


USA.gov is the U.S. government's official web portal to all federal, state and local government web resources and services.